Location: Lecco
(45.8566°N, 9.3977°E)
Time: 01:31:34
(UTC+02:00)

Courier 1B Rocket - Pass Details

Date: 29 August 2019
Orbit: 920 x 1202 km, 28.2° (Epoch: 22 September)

Event Time Altitude Azimuth Distance (km) Brightness Sun altitude
Rises 06:44:46 0° 247° (WSW) 3,933 7.5 0.1°
Reaches altitude 10° 06:50:57 10° 209° (SSW) 3,048 7.2 1.2°
Maximum altitude 06:51:55 10° 202° (SSW) 3,038 7.3 1.3°
Drops below altitude 10° 06:52:54 10° 194° (SSW) 3,067 7.4 1.5°
Sets 06:59:19 0° 156° (SSE) 4,073 8.4 2.6°
